Flag for Japan Weather past 2 weeks in Hamamatsu, Japan

Now
61 °F

Light rain. Overcast.


Feels Like: 61 °F
Forecast: 60 / 63 °F
Wind: 16 mph from Northeast

Location: Omaezaki

Current Time: Oct 22, 2014 at 11:26:56 PM

Latest Report: Oct 22, 2014 at 10:00 PM


Visibility: 7 mi

Pressure: 29.90 "Hg

Humidity: 90%

Dew point: 58 °F

Location of HamamatsuLocation

Historic Weather in Hamamatsu — Graph

°F

Hamamatsu temperature yesterday

Maximum temperature yesterday: 70 °F (at 11:00 PM)
Minimum temperature yesterday: 64 °F (at 2:00 AM)
Average temperature yesterday: 67 °F

Past Weeks' High & Low Weather Summary

 TemperatureHumidityPressure
High79 °F (Oct 14, 12:00 PM)100% (Oct 13, 2:00 PM)30.34 "Hg (Oct 13, 2:00 PM)
Low56 °F (Oct 16, 5:00 AM)35% (Oct 17, 11:00 AM)29.18 "Hg (Oct 14, 2:00 AM)
Average67 °F74%30.04 "Hg
* Reported Oct 7 10:00 PM — Oct 22 10:00 PM, Hamamatsu, Weather by CustomWeather, © 2014

Note: Actual official high and low records may vary slightly from our data, if they occured in-between our weather recording intervals... More about our weather records

Advertising

Hamamatsu weather history for previous 24 hours

 ConditionsComfort  
Time TempWeatherWind HumidityBarometerVisibility
10:00 PM
Oct 22
61 °FLight rain. Overcast.16 mph90%29.90 "Hg7 mi
9:00 PM61 °FLight rain. Overcast.13 mph91%29.87 "Hg8 mi
8:00 PM62 °FRain. Overcast.13 mph88%29.88 "Hg3 mi
7:00 PM63 °FMild.14 mph87%29.84 "Hg12 mi
6:00 PM63 °FLight rain. Overcast.13 mph94%29.82 "Hg6 mi
5:00 PM63 °FLight rain. Overcast.14 mph98%29.81 "Hg6 mi
4:00 PM66 °FLight rain. Cloudy.7 mph100%29.81 "Hg2 mi
3:00 PM67 °FLight rain. Cloudy.7 mph100%29.80 "Hg4 mi
2:00 PM68 °FLight rain. Cloudy.3 mph97%29.79 "Hg11 mi
1:00 PM68 °FMild.7 mph98%29.78 "Hg12 mi
12:00 PM70 °FFog.6 mph100%29.80 "Hg6 mi
11:00 AM71 °FMild.2 mph100%29.81 "Hg4 mi
10:00 AM70 °FLight rain. Cloudy.3 mph100%29.82 "Hg3 mi
9:00 AM70 °FLight rain. Cloudy.8 mph100%29.84 "Hg2 mi
8:00 AM69 °FRain. Cloudy.12 mph100%29.85 "Hg2 mi
7:00 AM69 °FRain. Cloudy.17 mph100%29.84 "Hg1 mi
6:00 AM71 °FLight rain. Cloudy.16 mph99%29.82 "Hg4 mi
5:00 AM71 °FMild.14 mph100%29.82 "Hg5 mi
4:00 AM69 °FLight rain. Overcast.3 mph100%29.83 "Hg5 mi
3:00 AM67 °FMild.3 mph100%29.85 "Hg7 mi
2:00 AM67 °FMild.3 mph100%29.87 "Hg4 mi
1:00 AM68 °FLight rain. Overcast.5 mph100%29.90 "Hg4 mi
12:00 AM69 °FMild.8 mph98%29.91 "Hg11 mi
11:00 PM
Oct 21
70 °FMild.9 mph97%29.93 "Hg9 mi
Weather by CustomWeather, © 2014

See weather overviewHow to use our weather pages